| time (UTC) | temp F | wind direction | speed MPH | gust MPH | rain 1hr in | rain 24hr in | rain mn in | humidity % | barometer mb |
| 20260507193118 | 47 | 23 | 0.0 | 0.0 | 0.00 | 0.00 | 0.00 | 77 | 1017.2 |
| 20260507192116 | 47 | 23 | 0.0 | 1.0 | 0.00 | 0.00 | 0.00 | 76 | 1017.2 |
| 20260507191114 | 47 | 23 | 0.0 | 1.0 | 0.00 | 0.00 | 0.00 | 76 | 1017.2 |
| 20260507190113 | 47 | 23 | 0.0 | 1.0 | 0.00 | 0.00 | 0.00 | 76 | 1017.2 |
| 20260507185111 | 47 | 23 | 1.0 | 1.0 | 0.00 | 0.00 | 0.00 | 75 | 1017.2 |
| 20260507184110 | 47 | 23 | 1.0 | 1.0 | 0.00 | 0.00 | 0.00 | 74 | 1017.2 |
| 20260507183037 | 47 | 23 | 0.0 | 1.0 | 0.00 | 0.00 | 0.00 | 73 | 1017.2 |
| 20260507182035 | 48 | 23 | 0.0 | 0.0 | 0.00 | 0.00 | 0.00 | 72 | 1017.2 |
| 20260507181034 | 48 | 23 | 0.0 | 0.0 | 0.00 | 0.00 | 0.00 | 71 | 1016.9 |
| 20260507180001 | 48 | 23 | 0.0 | 1.0 | 0.00 | 0.00 | 0.00 | 71 | 1017.2 |
| 20260507174959 | 48 | 23 | 0.0 | 3.0 | 0.00 | 0.00 | 0.00 | 71 | 1017.2 |
| 20260507173957 | 48 | 23 | 1.0 | 3.0 | 0.00 | 0.00 | 0.00 | 70 | 1017.2 |
| 20260507172925 | 49 | 133 | 1.0 | 1.0 | 0.00 | 0.00 | 0.00 | 69 | 1017.6 |
| 20260507171852 | 49 | 133 | 0.0 | 1.0 | 0.00 | 0.00 | 0.00 | 68 | 1017.6 |
| 20260507170850 | 49 | 133 | 0.0 | 1.0 | 0.00 | 0.00 | 0.00 | 67 | 1017.6 |
| 20260507165849 | 49 | 133 | 0.0 | 1.0 | 0.00 | 0.00 | 0.00 | 66 | 1017.6 |
| 20260507164848 | 50 | 133 | 0.0 | 3.0 | 0.00 | 0.00 | 0.00 | 65 | 1017.9 |
| 20260507163846 | 50 | 133 | 0.0 | 3.0 | 0.00 | 0.00 | 0.00 | 64 | 1017.9 |
| 20260507162845 | 51 | 217 | 0.0 | 3.0 | 0.00 | 0.00 | 0.00 | 63 | 1017.9 |
| 20260507161843 | 51 | 247 | 1.0 | 5.0 | 0.00 | 0.00 | 0.00 | 62 | 1017.9 |
| 20260507160841 | 51 | 241 | 2.0 | 5.0 | 0.00 | 0.00 | 0.00 | 61 | 1017.9 |
| 20260507155808 | 51 | 256 | 1.0 | 5.0 | 0.00 | 0.00 | 0.00 | 61 | 1017.9 |
| 20260507154807 | 51 | 231 | 2.0 | 5.0 | 0.00 | 0.00 | 0.00 | 60 | 1018.3 |
| 20260507153806 | 51 | 274 | 2.0 | 6.0 | 0.00 | 0.00 | 0.00 | 60 | 1018.3 |
| 20260507152804 | 51 | 258 | 2.0 | 8.0 | 0.00 | 0.00 | 0.00 | 59 | 1018.3 |
| 20260507151803 | 51 | 248 | 1.0 | 10.0 | 0.00 | 0.00 | 0.00 | 58 | 1018.3 |
| 20260507150801 | 51 | 272 | 2.0 | 12.0 | 0.00 | 0.00 | 0.00 | 58 | 1018.6 |
| 20260507145658 | 52 | 254 | 0.0 | 12.0 | 0.00 | 0.00 | 0.00 | 57 | 1018.6 |
| 20260507144656 | 52 | 261 | 2.0 | 7.0 | 0.00 | 0.00 | 0.00 | 56 | 1018.6 |
| 20260507143655 | 52 | 277 | 2.0 | 8.0 | 0.00 | 0.00 | 0.00 | 57 | 1018.6 |
| 20260507142653 | 51 | 245 | 2.0 | 8.0 | 0.00 | 0.00 | 0.00 | 56 | 1018.6 |
| 20260507141651 | 51 | 234 | 2.0 | 8.0 | 0.00 | 0.00 | 0.00 | 57 | 1018.6 |
| 20260507140650 | 51 | 258 | 2.0 | 6.0 | 0.00 | 0.00 | 0.00 | 57 | 1018.6 |
| 20260507135648 | 51 | 234 | 1.0 | 5.0 | 0.00 | 0.00 | 0.00 | 57 | 1018.6 |
| 20260507134647 | 51 | 250 | 1.0 | 4.0 | 0.00 | 0.00 | 0.00 | 57 | 1018.6 |
| 20260507133646 | 51 | 227 | 2.0 | 7.0 | 0.00 | 0.00 | 0.00 | 57 | 1018.6 |
| 20260507132645 | 51 | 254 | 2.0 | 7.0 | 0.00 | 0.00 | 0.00 | 57 | 1018.6 |
| 20260507131644 | 51 | 229 | 1.0 | 4.0 | 0.00 | 0.00 | 0.00 | 56 | 1018.6 |
| 20260507130642 | 52 | 248 | 2.0 | 4.0 | 0.00 | 0.00 | 0.00 | 56 | 1018.6 |
| 20260507125641 | 52 | 221 | 1.0 | 4.0 | 0.00 | 0.00 | 0.00 | 56 | 1018.6 |
| 20260507124639 | 52 | 270 | 2.0 | 3.0 | 0.00 | 0.00 | 0.00 | 56 | 1018.6 |
| 20260507123637 | 52 | 240 | 1.0 | 8.0 | 0.00 | 0.00 | 0.00 | 55 | 1018.6 |
| 20260507122635 | 52 | 240 | 1.0 | 8.0 | 0.00 | 0.00 | 0.00 | 54 | 1018.6 |
| 20260507121633 | 52 | 215 | 2.0 | 5.0 | 0.00 | 0.00 | 0.00 | 53 | 1018.6 |
| 20260507120631 | 53 | 251 | 2.0 | 8.0 | 0.00 | 0.00 | 0.00 | 53 | 1018.6 |
| 20260507115630 | 53 | 241 | 3.0 | 8.0 | 0.00 | 0.00 | 0.00 | 53 | 1018.6 |
| 20260507114628 | 53 | 245 | 2.0 | 7.0 | 0.00 | 0.00 | 0.00 | 53 | 1018.7 |
| 20260507113627 | 53 | 247 | 2.0 | 6.0 | 0.00 | 0.00 | 0.00 | 53 | 1018.7 |
| 20260507112625 | 53 | 251 | 3.0 | 7.0 | 0.00 | 0.00 | 0.00 | 51 | 1018.6 |
| 20260507111624 | 53 | 251 | 3.0 | 9.0 | 0.00 | 0.00 | 0.00 | 51 | 1018.6 |
| 20260507110622 | 53 | 266 | 2.0 | 9.0 | 0.00 | 0.00 | 0.00 | 51 | 1018.7 |
| 20260507105620 | 54 | 273 | 3.0 | 9.0 | 0.00 | 0.00 | 0.00 | 50 | 1018.6 |
| 20260507104619 | 54 | 273 | 2.0 | 8.0 | 0.00 | 0.00 | 0.00 | 50 | 1018.6 |
| 20260507103546 | 54 | 270 | 3.0 | 10.0 | 0.00 | 0.00 | 0.00 | 50 | 1018.3 |
| 20260507102544 | 54 | 237 | 2.0 | 7.0 | 0.00 | 0.00 | 0.00 | 49 | 1018.3 |
| 20260507101440 | 54 | 272 | 2.0 | 10.0 | 0.00 | 0.00 | 0.00 | 49 | 1018.3 |
| 20260507100439 | 54 | 258 | 3.0 | 10.0 | 0.00 | 0.00 | 0.00 | 48 | 1017.9 |
| 20260507095437 | 54 | 260 | 2.0 | 8.0 | 0.00 | 0.00 | 0.00 | 47 | 1017.9 |
| 20260507094435 | 55 | 264 | 3.0 | 13.0 | 0.00 | 0.00 | 0.00 | 46 | 1017.9 |
| 20260507093403 | 55 | 248 | 4.0 | 13.0 | 0.00 | 0.00 | 0.00 | 45 | 1017.6 |
| 20260507092331 | 55 | 249 | 3.0 | 13.0 | 0.00 | 0.00 | 0.00 | 44 | 1017.6 |
| 20260507091329 | 55 | 244 | 3.0 | 10.0 | 0.00 | 0.00 | 0.00 | 44 | 1017.6 |
| 20260507090328 | 55 | 240 | 3.0 | 7.0 | 0.00 | 0.00 | 0.00 | 43 | 1017.2 |
| 20260507085254 | 55 | 257 | 3.0 | 4.0 | 0.00 | 0.00 | 0.00 | 42 | 1017.2 |
| 20260507084253 | 56 | 272 | 2.0 | 8.0 | 0.00 | 0.00 | 0.00 | 42 | 1016.9 |
| 20260507083251 | 56 | 264 | 3.0 | 12.0 | 0.00 | 0.00 | 0.00 | 41 | 1016.9 |
| 20260507082250 | 56 | 269 | 4.0 | 12.0 | 0.00 | 0.00 | 0.00 | 40 | 1016.9 |
| 20260507081248 | 56 | 278 | 3.0 | 10.0 | 0.00 | 0.00 | 0.00 | 39 | 1016.6 |
| 20260507080247 | 56 | 306 | 2.0 | 7.0 | 0.00 | 0.00 | 0.00 | 39 | 1016.6 |
| 20260507075246 | 56 | 272 | 2.0 | 7.0 | 0.00 | 0.00 | 0.00 | 39 | 1016.2 |
| 20260507074244 | 57 | 229 | 3.0 | 10.0 | 0.00 | 0.00 | 0.00 | 38 | 1015.9 |
| 20260507073243 | 57 | 256 | 3.0 | 10.0 | 0.00 | 0.00 | 0.00 | 39 | 1015.9 |
| 20260507072241 | 57 | 236 | 3.0 | 14.0 | 0.00 | 0.00 | 0.00 | 39 | 1015.9 |
| 20260507071240 | 57 | 271 | 2.0 | 14.0 | 0.00 | 0.00 | 0.00 | 40 | 1015.6 |
| 20260507070239 | 58 | 239 | 3.0 | 16.0 | 0.00 | 0.00 | 0.00 | 40 | 1015.6 |
| 20260507065238 | 58 | 272 | 2.0 | 16.0 | 0.00 | 0.00 | 0.00 | 39 | 1015.2 |
| 20260507064205 | 58 | 277 | 3.0 | 15.0 | 0.00 | 0.00 | 0.00 | 40 | 1015.2 |
| 20260507063203 | 59 | 267 | 2.0 | 11.0 | 0.00 | 0.00 | 0.00 | 41 | 1015.2 |
| 20260507062202 | 59 | 248 | 2.0 | 13.0 | 0.00 | 0.00 | 0.00 | 40 | 1015.2 |
| 20260507061201 | 59 | 281 | 5.0 | 13.0 | 0.00 | 0.00 | 0.00 | 38 | 1014.9 |
| 20260507060159 | 60 | 254 | 4.0 | 16.0 | 0.00 | 0.00 | 0.00 | 36 | 1014.9 |
| 20260507055158 | 60 | 263 | 6.0 | 14.0 | 0.00 | 0.00 | 0.00 | 35 | 1014.6 |
| 20260507054125 | 60 | 252 | 4.0 | 14.0 | 0.00 | 0.00 | 0.00 | 34 | 1014.9 |
| 20260507053124 | 60 | 261 | 4.0 | 11.0 | 0.00 | 0.00 | 0.00 | 34 | 1014.6 |
| 20260507052122 | 61 | 286 | 4.0 | 14.0 | 0.00 | 0.00 | 0.00 | 34 | 1014.2 |
| 20260507051120 | 61 | 252 | 4.0 | 14.0 | 0.00 | 0.00 | 0.00 | 33 | 1014.2 |
| 20260507050119 | 61 | 274 | 4.0 | 14.0 | 0.00 | 0.00 | 0.00 | 32 | 1014.2 |
| 20260507045118 | 62 | 252 | 4.0 | 14.0 | 0.00 | 0.00 | 0.00 | 32 | 1014.2 |
| 20260507044116 | 63 | 276 | 3.0 | 16.0 | 0.00 | 0.00 | 0.00 | 32 | 1013.9 |
| 20260507043114 | 63 | 268 | 5.0 | 17.0 | 0.00 | 0.00 | 0.00 | 33 | 1013.9 |
| 20260507042113 | 63 | 257 | 5.0 | 17.0 | 0.00 | 0.00 | 0.00 | 31 | 1013.9 |
| 20260507041111 | 63 | 284 | 4.0 | 16.0 | 0.00 | 0.00 | 0.00 | 32 | 1013.6 |
| 20260507040039 | 63 | 286 | 2.0 | 17.0 | 0.00 | 0.00 | 0.00 | 32 | 1013.6 |
| 20260507035037 | 64 | 267 | 3.0 | 13.0 | 0.00 | 0.00 | 0.00 | 31 | 1013.6 |
| 20260507034036 | 64 | 271 | 5.0 | 13.0 | 0.00 | 0.00 | 0.00 | 31 | 1013.2 |
| 20260507033035 | 64 | 274 | 3.0 | 14.0 | 0.00 | 0.00 | 0.00 | 30 | 1013.2 |
| 20260507032033 | 64 | 231 | 5.0 | 15.0 | 0.00 | 0.00 | 0.00 | 29 | 1013.2 |
| 20260507030858 | 64 | 262 | 6.0 | 14.0 | 0.00 | 0.00 | 0.00 | 29 | 1013.2 |
| 20260507025857 | 64 | 270 | 4.0 | 14.0 | 0.00 | 0.00 | 0.00 | 28 | 1013.2 |
| 20260507024855 | 64 | 252 | 3.0 | 16.0 | 0.00 | 0.00 | 0.00 | 30 | 1013.2 |
| 20260507023854 | 64 | 274 | 4.0 | 16.0 | 0.00 | 0.00 | 0.00 | 29 | 1013.2 |
| 20260507022821 | 64 | 259 | 3.0 | 11.0 | 0.00 | 0.00 | 0.00 | 30 | 1013.6 |
| 20260507021820 | 64 | 275 | 3.0 | 13.0 | 0.00 | 0.00 | 0.00 | 32 | 1013.2 |
| 20260507020818 | 64 | 257 | 4.0 | 11.0 | 0.00 | 0.00 | 0.00 | 32 | 1013.2 |
| 20260507015817 | 63 | 233 | 3.0 | 12.0 | 0.00 | 0.00 | 0.00 | 33 | 1013.2 |
| 20260507014815 | 62 | 298 | 5.0 | 12.0 | 0.00 | 0.00 | 0.00 | 34 | 1013.6 |
| 20260507013814 | 60 | 263 | 3.0 | 12.0 | 0.00 | 0.00 | 0.00 | 45 | 1013.6 |
| 20260507012812 | 59 | 284 | 2.0 | 12.0 | 0.00 | 0.00 | 0.00 | 52 | 1013.6 |
| 20260507011811 | 59 | 264 | 2.0 | 11.0 | 0.00 | 0.00 | 0.00 | 55 | 1013.6 |
| 20260507010738 | 59 | 273 | 4.0 | 12.0 | 0.00 | 0.00 | 0.00 | 54 | 1013.6 |
| 20260507005736 | 61 | 274 | 2.0 | 15.0 | 0.00 | 0.00 | 0.00 | 53 | 1013.9 |
| 20260507004735 | 66 | 261 | 4.0 | 15.0 | 0.00 | 0.00 | 0.00 | 48 | 1013.6 |
| 20260507003733 | 67 | 84 | 0.0 | 0.0 | 0.00 | 0.00 | 0.00 | 53 | 1013.3 |
| 20260507002731 | 66 | 256 | 0.0 | 0.0 | 0.00 | 0.00 | 0.00 | 52 | 1013.3 |
| 20260507001729 | 66 | 335 | 0.0 | 0.0 | 0.00 | 0.00 | 0.00 | 54 | 1013.3 |
| 20260507000656 | 67 | 289 | 0.0 | 4.0 | 0.00 | 0.00 | 0.00 | 52 | 1013.3 |
| 20260506235655 | 67 | 306 | 0.0 | 4.0 | 0.00 | 0.00 | 0.00 | 52 | 1013.3 |
| 20260506234653 | 68 | 294 | 2.0 | 6.0 | 0.00 | 0.00 | 0.00 | 52 | 1013.3 |
| 20260506233651 | 68 | 340 | 2.0 | 6.0 | 0.00 | 0.00 | 0.00 | 52 | 1013.3 |
| 20260506232650 | 67 | 25 | 1.0 | 5.0 | 0.00 | 0.00 | 0.00 | 55 | 1013.3 |
| 20260506231546 | 67 | 15 | 1.0 | 6.0 | 0.00 | 0.00 | 0.00 | 56 | 1013.3 |
| 20260506230545 | 67 | 24 | 2.0 | 3.0 | 0.00 | 0.00 | 0.00 | 56 | 1013.3 |
| 20260506225543 | 66 | 337 | 1.0 | 3.0 | 0.00 | 0.00 | 0.00 | 60 | 1013.3 |
| 20260506224542 | 65 | 337 | 1.0 | 5.0 | 0.00 | 0.00 | 0.00 | 61 | 1013.3 |
| 20260506223540 | 65 | 34 | 1.0 | 3.0 | 0.00 | 0.00 | 0.00 | 62 | 1013.3 |
| 20260506222539 | 63 | 343 | 1.0 | 2.0 | 0.00 | 0.00 | 0.00 | 66 | 1013.3 |
| 20260506221537 | 62 | 343 | 1.0 | 2.0 | 0.00 | 0.00 | 0.00 | 70 | 1013.3 |
| 20260506220536 | 60 | 343 | 1.0 | 2.0 | 0.00 | 0.00 | 0.00 | 74 | 1013.3 |
| 20260506215535 | 58 | 343 | 1.0 | 2.0 | 0.00 | 0.00 | 0.00 | 76 | 1013.2 |
| 20260506214533 | 56 | 343 | 1.0 | 2.0 | 0.00 | 0.00 | 0.00 | 82 | 1012.9 |
| 20260506213531 | 55 | 343 | 0.0 | 2.0 | 0.00 | 0.00 | 0.00 | 86 | 1012.9 |
| 20260506212529 | 54 | 343 | 0.0 | 2.0 | 0.00 | 0.00 | 0.00 | 88 | 1012.9 |
| 20260506211528 | 52 | 343 | 1.0 | 2.0 | 0.00 | 0.00 | 0.00 | 91 | 1012.9 |
| 20260506210526 | 51 | 343 | 0.0 | 1.0 | 0.00 | 0.00 | 0.00 | 90 | 1012.9 |
| 20260506205524 | 51 | 343 | 1.0 | 1.0 | 0.00 | 0.00 | 0.00 | 89 | 1012.9 |
| 20260506204523 | 51 | 343 | 0.0 | 2.0 | 0.00 | 0.00 | 0.00 | 89 | 1012.9 |
| 20260506203522 | 51 | 343 | 0.0 | 2.0 | 0.00 | 0.00 | 0.00 | 90 | 1012.5 |
| 20260506202520 | 52 | 343 | 0.0 | 1.0 | 0.00 | 0.00 | 0.00 | 89 | 1012.6 |
| 20260506201448 | 52 | 343 | 0.0 | 2.0 | 0.00 | 0.00 | 0.00 | 89 | 1012.6 |
| 20260506200446 | 52 | 343 | 1.0 | 2.0 | 0.00 | 0.00 | 0.00 | 89 | 1012.6 |
| 20260506195413 | 52 | 343 | 1.0 | 2.0 | 0.00 | 0.00 | 0.00 | 89 | 1012.6 |
| 20260506194411 | 51 | 343 | 0.0 | 1.0 | 0.00 | 0.00 | 0.00 | 90 | 1012.9 |
| 20260506193410 | 52 | 343 | 1.0 | 1.0 | 0.00 | 0.00 | 0.00 | 90 | 1012.9 |